Time,TemperatureF,DewpointF,PressureIn,WindDirection,WindDirectionDegrees,WindSpeedMPH,WindSpeedGustMPH,Humidity,HourlyPrecipIn,Conditions,Clouds,dailyrainin,SoftwareType,DateUTC
2013-04-12 00:00:00,46.5,46.2,29.90,South,181,12.0,18.0,99,0.00,,---,0.03,VWS V14.01,2013-04-12 04:00:00,
2013-04-12 00:05:00,46.5,46.2,29.90,ENE,78,14.0,17.0,99,0.00,,---,0.00,VWS V14.01,2013-04-12 04:05:00,
2013-04-12 00:10:00,46.5,46.2,29.89,East,89,15.0,18.0,99,0.00,,---,0.00,VWS V14.01,2013-04-12 04:10:00,
2013-04-12 00:15:00,46.5,46.2,29.89,ENE,60,12.0,22.0,99,0.00,,---,0.00,VWS V14.01,2013-04-12 04:15:00,
2013-04-12 00:20:00,46.5,46.2,29.89,ENE,58,13.0,22.0,99,0.00,,---,0.00,VWS V14.01,2013-04-12 04:20:00,
2013-04-12 00:25:00,46.5,46.2,29.89,NE,55,10.0,22.0,99,0.00,,---,0.00,VWS V14.01,2013-04-12 04:25:00,
2013-04-12 00:30:00,46.5,46.2,29.89,ENE,78,9.0,9.0,99,0.00,,---,0.00,VWS V14.01,2013-04-12 04:30:00,
2013-04-12 00:35:00,46.5,46.2,29.89,NE,35,11.0,18.0,99,0.00,,---,0.00,VWS V14.01,2013-04-12 04:35:00,
2013-04-12 00:40:00,46.5,46.2,29.89,ENE,58,13.0,19.0,99,0.00,,---,0.00,VWS V14.01,2013-04-12 04:40:00,
2013-04-12 00:45:00,46.5,46.2,29.90,NNE,27,11.0,19.0,99,0.00,,---,0.00,VWS V14.01,2013-04-12 04:45:00,
2013-04-12 00:50:00,46.5,46.2,29.90,ESE,106,12.0,19.0,99,0.00,,---,0.00,VWS V14.01,2013-04-12 04:50:00,
2013-04-12 00:55:00,46.5,46.2,29.90,NE,35,10.0,19.0,99,0.00,,---,0.00,VWS V14.01,2013-04-12 04:55:00,
2013-04-12 01:00:00,46.5,46.2,29.90,NE,55,11.0,13.0,99,0.00,,---,0.00,VWS V14.01,2013-04-12 05:00:00,
2013-04-12 01:05:00,46.5,46.2,29.90,NNE,17,13.0,20.0,99,0.00,,---,0.00,VWS V14.01,2013-04-12 05:05:00,
2013-04-12 01:10:00,46.5,46.2,29.90,ENE,64,12.0,21.0,99,0.00,,---,0.00,VWS V14.01,2013-04-12 05:10:00,
2013-04-12 01:15:00,46.5,46.2,29.90,ENE,68,18.0,21.0,99,0.00,,---,0.00,VWS V14.01,2013-04-12 05:15:00,
2013-04-12 01:20:00,46.5,46.2,29.90,NE,34,9.0,21.0,99,0.00,,---,0.00,VWS V14.01,2013-04-12 05:20:00,
2013-04-12 01:25:00,46.5,46.2,29.90,NNW,348,13.0,21.0,99,0.00,,---,0.00,VWS V14.01,2013-04-12 05:25:00,
2013-04-12 01:30:00,46.5,46.2,29.90,NNE,27,16.0,16.0,99,0.01,,---,0.01,VWS V14.01,2013-04-12 05:30:00,
2013-04-12 01:35:00,46.4,46.1,29.90,ENE,66,13.0,19.0,99,0.01,,---,0.01,VWS V14.01,2013-04-12 05:35:00,
2013-04-12 01:40:00,46.3,46.0,29.89,East,94,15.0,21.0,99,0.01,,---,0.01,VWS V14.01,2013-04-12 05:40:00,
2013-04-12 01:45:00,46.3,46.0,29.89,NE,44,16.0,21.0,99,0.01,,---,0.01,VWS V14.01,2013-04-12 05:45:00,
2013-04-12 01:50:00,46.3,46.0,29.89,NNE,12,10.0,21.0,99,0.01,,---,0.01,VWS V14.01,2013-04-12 05:50:00,
2013-04-12 01:55:00,46.2,45.9,29.89,NNE,25,14.0,21.0,99,0.01,,---,0.01,VWS V14.01,2013-04-12 05:55:00,
2013-04-12 02:00:00,46.2,45.9,29.89,NNE,32,14.0,14.0,99,0.01,,---,0.01,VWS V14.01,2013-04-12 06:00:00,
2013-04-12 02:05:00,46.2,45.9,29.89,NE,35,15.0,19.0,99,0.01,,---,0.01,VWS V14.01,2013-04-12 06:05:00,
2013-04-12 02:10:00,46.1,45.8,29.89,NNE,15,13.0,21.0,99,0.01,,---,0.01,VWS V14.01,2013-04-12 06:10:00,
2013-04-12 02:15:00,46.2,45.9,29.88,NE,44,13.0,21.0,99,0.01,,---,0.01,VWS V14.01,2013-04-12 06:15:00,
2013-04-12 02:20:00,46.2,45.9,29.88,NNW,342,8.0,22.0,99,0.01,,---,0.01,VWS V14.01,2013-04-12 06:20:00,
2013-04-12 02:25:00,46.1,45.8,29.88,NE,43,19.0,22.0,99,0.01,,---,0.01,VWS V14.01,2013-04-12 06:25:00,
2013-04-12 02:30:00,46.1,45.8,29.88,North,353,10.0,16.0,99,0.00,,---,0.01,VWS V14.01,2013-04-12 06:30:00,
2013-04-12 02:35:00,46.1,45.8,29.88,NE,56,14.0,22.0,99,0.00,,---,0.01,VWS V14.01,2013-04-12 06:35:00,
2013-04-12 02:40:00,46.1,45.8,29.87,NE,51,11.0,22.0,99,0.00,,---,0.01,VWS V14.01,2013-04-12 06:40:00,
2013-04-12 02:45:00,46.1,45.8,29.87,NNE,26,10.0,22.0,99,0.00,,---,0.01,VWS V14.01,2013-04-12 06:45:00,
2013-04-12 02:50:00,46.2,45.9,29.87,ESE,110,8.0,22.0,99,0.00,,---,0.01,VWS V14.01,2013-04-12 06:50:00,
2013-04-12 02:55:00,46.2,45.9,29.87,NNE,30,12.0,22.0,99,0.00,,---,0.01,VWS V14.01,2013-04-12 06:55:00,
2013-04-12 03:00:00,46.3,46.0,29.86,North,1,16.0,18.0,99,0.00,,---,0.01,VWS V14.01,2013-04-12 07:00:00,
2013-04-12 03:06:00,46.3,46.0,29.86,West,281,6.0,19.0,99,0.00,,---,0.01,VWS V14.01,2013-04-12 07:06:00,
2013-04-12 03:10:00,46.3,46.0,29.86,NE,35,12.0,19.0,99,0.00,,---,0.01,VWS V14.01,2013-04-12 07:10:00,
2013-04-12 03:16:00,46.4,46.1,29.86,North,359,10.0,20.0,99,0.00,,---,0.01,VWS V14.01,2013-04-12 07:16:00,
2013-04-12 03:21:00,46.4,46.1,29.86,ENE,73,14.0,22.0,99,0.00,,---,0.01,VWS V14.01,2013-04-12 07:21:00,
2013-04-12 03:26:00,46.5,46.2,29.86,NE,39,10.0,22.0,99,0.00,,---,0.01,VWS V14.01,2013-04-12 07:26:00,
2013-04-12 03:31:00,46.5,46.2,29.86,NNE,32,15.0,17.0,99,0.00,,---,0.01,VWS V14.01,2013-04-12 07:31:00,
2013-04-12 03:36:00,46.6,46.3,29.86,North,351,11.0,19.0,99,0.00,,---,0.01,VWS V14.01,2013-04-12 07:36:00,
2013-04-12 03:41:00,46.7,46.4,29.86,NNE,30,12.0,19.0,99,0.00,,---,0.01,VWS V14.01,2013-04-12 07:41:00,
2013-04-12 03:46:00,46.7,46.4,29.86,NE,41,13.0,19.0,99,0.00,,---,0.01,VWS V14.01,2013-04-12 07:46:00,
2013-04-12 03:51:00,46.7,46.4,29.86,NE,50,16.0,20.0,99,0.00,,---,0.01,VWS V14.01,2013-04-12 07:51:00,
2013-04-12 03:56:00,46.7,46.4,29.86,North,359,15.0,20.0,99,0.00,,---,0.01,VWS V14.01,2013-04-12 07:56:00,
2013-04-12 04:01:00,46.8,46.5,29.86,NNE,17,13.0,15.0,99,0.00,,---,0.01,VWS V14.01,2013-04-12 08:01:00,
2013-04-12 04:06:00,46.8,46.5,29.86,North,359,14.0,20.0,99,0.00,,---,0.01,VWS V14.01,2013-04-12 08:06:00,
2013-04-12 04:11:00,46.8,46.5,29.85,NE,55,9.0,20.0,99,0.00,,---,0.01,VWS V14.01,2013-04-12 08:11:00,
2013-04-12 04:16:00,46.8,46.5,29.85,ENE,75,13.0,20.0,99,0.00,,---,0.01,VWS V14.01,2013-04-12 08:16:00,
2013-04-12 04:21:00,46.8,46.5,29.85,North,355,10.0,20.0,99,0.00,,---,0.01,VWS V14.01,2013-04-12 08:21:00,
2013-04-12 04:26:00,46.8,46.5,29.84,ENE,61,14.0,20.0,99,0.00,,---,0.01,VWS V14.01,2013-04-12 08:26:00,
2013-04-12 04:31:00,46.9,46.6,29.84,NNE,17,18.0,18.0,99,0.00,,---,0.01,VWS V14.01,2013-04-12 08:31:00,
2013-04-12 04:36:00,46.9,46.6,29.84,North,360,17.0,21.0,99,0.00,,---,0.01,VWS V14.01,2013-04-12 08:36:00,
2013-04-12 04:41:00,46.9,46.6,29.84,NE,35,10.0,21.0,99,0.01,,---,0.02,VWS V14.01,2013-04-12 08:41:00,
2013-04-12 04:47:00,46.9,46.6,29.84,ENE,73,7.0,21.0,99,0.01,,---,0.02,VWS V14.01,2013-04-12 08:47:00,
2013-04-12 04:52:00,46.9,46.6,29.84,NE,42,14.0,21.0,99,0.01,,---,0.02,VWS V14.01,2013-04-12 08:52:00,
2013-04-12 04:57:00,47.0,46.7,29.84,NNW,347,11.0,21.0,99,0.01,,---,0.02,VWS V14.01,2013-04-12 08:57:00,
2013-04-12 05:02:00,47.0,46.7,29.83,North,1,7.0,14.0,99,0.01,,---,0.02,VWS V14.01,2013-04-12 09:02:00,
2013-04-12 05:07:00,47.0,46.7,29.83,NE,41,9.0,14.0,99,0.01,,---,0.02,VWS V14.01,2013-04-12 09:07:00,
2013-04-12 05:12:00,46.9,46.6,29.83,NNE,22,16.0,18.0,99,0.01,,---,0.02,VWS V14.01,2013-04-12 09:12:00,
2013-04-12 05:17:00,46.9,46.6,29.83,NNE,25,12.0,18.0,99,0.01,,---,0.02,VWS V14.01,2013-04-12 09:17:00,
2013-04-12 05:22:00,46.9,46.6,29.83,NNE,29,15.0,18.0,99,0.01,,---,0.02,VWS V14.01,2013-04-12 09:22:00,
2013-04-12 05:27:00,46.9,46.6,29.82,North,360,10.0,18.0,99,0.01,,---,0.02,VWS V14.01,2013-04-12 09:27:00,
2013-04-12 05:32:00,47.0,46.7,29.82,ENE,68,10.0,17.0,99,0.01,,---,0.02,VWS V14.01,2013-04-12 09:32:00,
2013-04-12 05:37:00,47.0,46.7,29.82,North,6,4.0,18.0,99,0.01,,---,0.02,VWS V14.01,2013-04-12 09:37:00,
2013-04-12 05:42:00,47.0,46.7,29.81,NE,53,6.0,18.0,99,0.01,,---,0.02,VWS V14.01,2013-04-12 09:42:00,
2013-04-12 05:47:00,46.9,46.6,29.81,NNE,17,14.0,18.0,99,0.01,,---,0.02,VWS V14.01,2013-04-12 09:47:00,
2013-04-12 05:52:00,47.0,46.7,29.80,NE,39,12.0,18.0,99,0.01,,---,0.02,VWS V14.01,2013-04-12 09:52:00,
2013-04-12 05:57:00,47.0,46.7,29.80,East,88,7.0,18.0,99,0.01,,---,0.02,VWS V14.01,2013-04-12 09:57:00,
2013-04-12 06:02:00,47.1,46.8,29.80,NNE,24,16.0,18.0,99,0.00,,---,0.02,VWS V14.01,2013-04-12 10:02:00,
2013-04-12 06:07:00,47.2,46.9,29.81,NE,34,10.0,18.0,99,0.00,,---,0.02,VWS V14.01,2013-04-12 10:07:00,
2013-04-12 06:12:00,47.2,46.9,29.81,NNW,334,11.0,18.0,99,0.00,,---,0.02,VWS V14.01,2013-04-12 10:12:00,
2013-04-12 06:17:00,47.2,46.9,29.81,NE,36,8.0,18.0,99,0.00,,---,0.02,VWS V14.01,2013-04-12 10:17:00,
2013-04-12 06:22:00,47.2,46.9,29.81,North,349,8.0,18.0,99,0.00,,---,0.02,VWS V14.01,2013-04-12 10:22:00,
2013-04-12 06:27:00,47.2,46.9,29.80,NNE,28,6.0,18.0,99,0.00,,---,0.02,VWS V14.01,2013-04-12 10:27:00,
2013-04-12 06:32:00,47.3,47.0,29.81,North,10,10.0,12.0,99,0.00,,---,0.02,VWS V14.01,2013-04-12 10:32:00,
2013-04-12 06:37:00,47.3,47.0,29.81,East,100,8.0,14.0,99,0.00,,---,0.02,VWS V14.01,2013-04-12 10:37:00,
2013-04-12 06:42:00,47.3,47.0,29.80,NNE,33,12.0,15.0,99,0.00,,---,0.02,VWS V14.01,2013-04-12 10:42:00,
2013-04-12 06:47:00,47.3,47.0,29.81,NNE,17,15.0,16.0,99,0.00,,---,0.02,VWS V14.01,2013-04-12 10:47:00,
2013-04-12 06:52:00,47.3,47.0,29.81,ENE,67,7.0,16.0,99,0.00,,---,0.02,VWS V14.01,2013-04-12 10:52:00,
2013-04-12 06:57:00,47.3,47.0,29.80,NE,53,9.0,16.0,99,0.00,,---,0.02,VWS V14.01,2013-04-12 10:57:00,
2013-04-12 07:02:00,47.3,47.0,29.80,NE,49,12.0,15.0,99,0.00,,---,0.02,VWS V14.01,2013-04-12 11:02:00,
2013-04-12 07:07:00,47.3,47.0,29.80,ENE,75,6.0,16.0,99,0.00,,---,0.02,VWS V14.01,2013-04-12 11:07:00,
2013-04-12 07:12:00,47.4,47.1,29.79,NNE,26,5.0,16.0,99,0.00,,---,0.02,VWS V14.01,2013-04-12 11:12:00,
2013-04-12 07:17:00,47.3,47.0,29.79,ENE,75,12.0,16.0,99,0.00,,---,0.02,VWS V14.01,2013-04-12 11:17:00,
2013-04-12 07:22:00,47.4,47.1,29.80,East,84,10.0,16.0,99,0.00,,---,0.02,VWS V14.01,2013-04-12 11:22:00,
2013-04-12 07:27:00,47.3,47.0,29.80,NNE,27,9.0,16.0,99,0.00,,---,0.02,VWS V14.01,2013-04-12 11:27:00,
2013-04-12 07:32:00,47.3,47.0,29.80,NNE,15,8.0,14.0,99,0.00,,---,0.02,VWS V14.01,2013-04-12 11:32:00,
2013-04-12 07:38:00,47.3,47.0,29.80,NE,42,9.0,14.0,99,0.00,,---,0.02,VWS V14.01,2013-04-12 11:38:00,
2013-04-12 07:43:00,47.3,47.0,29.80,NE,43,5.0,14.0,99,0.00,,---,0.02,VWS V14.01,2013-04-12 11:43:00,
2013-04-12 07:48:00,47.3,47.0,29.79,ENE,75,5.0,14.0,99,0.00,,---,0.02,VWS V14.01,2013-04-12 11:48:00,
2013-04-12 07:53:00,47.5,47.2,29.79,NE,38,5.0,14.0,99,0.00,,---,0.02,VWS V14.01,2013-04-12 11:53:00,
2013-04-12 07:58:00,47.5,47.2,29.79,NE,41,7.0,14.0,99,0.00,,---,0.02,VWS V14.01,2013-04-12 11:58:00,
2013-04-12 08:03:00,47.6,47.3,29.78,NNE,29,4.0,11.0,99,0.00,,---,0.02,VWS V14.01,2013-04-12 12:03:00,
2013-04-12 08:08:00,47.7,47.4,29.78,NNE,27,6.0,11.0,99,0.00,,---,0.02,VWS V14.01,2013-04-12 12:08:00,
2013-04-12 08:13:00,47.8,47.5,29.78,NE,43,3.0,11.0,99,0.00,,---,0.02,VWS V14.01,2013-04-12 12:13:00,
2013-04-12 08:18:00,48.0,47.7,29.78,NNE,30,7.0,11.0,99,0.00,,---,0.02,VWS V14.01,2013-04-12 12:18:00,
2013-04-12 08:23:00,48.1,47.8,29.78,NE,39,3.0,11.0,99,0.00,,---,0.02,VWS V14.01,2013-04-12 12:23:00,
2013-04-12 08:28:00,48.2,47.9,29.77,NNE,21,5.0,11.0,99,0.00,,---,0.02,VWS V14.01,2013-04-12 12:28:00,
2013-04-12 08:33:00,48.2,47.9,29.77,East,81,3.0,8.0,99,0.00,,---,0.02,VWS V14.01,2013-04-12 12:33:00,
2013-04-12 08:38:00,48.5,48.2,29.77,ENE,63,5.0,8.0,99,0.00,,---,0.02,VWS V14.01,2013-04-12 12:38:00,
2013-04-12 08:43:00,48.8,48.5,29.77,ENE,58,4.0,8.0,99,0.01,,---,0.03,VWS V14.01,2013-04-12 12:43:00,
2013-04-12 08:48:00,48.7,48.4,29.78,ENE,71,3.0,8.0,99,0.01,,---,0.03,VWS V14.01,2013-04-12 12:48:00,
2013-04-12 08:53:00,48.7,48.4,29.78,East,81,3.0,8.0,99,0.01,,---,0.03,VWS V14.01,2013-04-12 12:53:00,
2013-04-12 08:58:00,48.7,48.4,29.78,NE,54,3.0,8.0,99,0.01,,---,0.03,VWS V14.01,2013-04-12 12:58:00,
2013-04-12 09:03:00,48.8,48.5,29.78,NE,55,0.0,2.0,99,0.01,,---,0.03,VWS V14.01,2013-04-12 13:03:00,
2013-04-12 09:08:00,49.0,48.7,29.78,ENE,62,3.0,3.0,99,0.03,,---,0.05,VWS V14.01,2013-04-12 13:08:00,
2013-04-12 09:13:00,49.1,48.8,29.78,ENE,57,2.0,3.0,99,0.05,,---,0.07,VWS V14.01,2013-04-12 13:13:00,
2013-04-12 09:18:00,49.2,48.9,29.78,NE,50,0.0,3.0,99,0.06,,---,0.08,VWS V14.01,2013-04-12 13:18:00,
2013-04-12 09:23:00,49.4,49.1,29.78,East,94,0.0,3.0,99,0.06,,---,0.08,VWS V14.01,2013-04-12 13:23:00,
2013-04-12 09:28:00,49.5,49.5,29.77,East,91,0.0,3.0,100,0.06,,---,0.08,VWS V14.01,2013-04-12 13:28:00,
2013-04-12 09:33:00,49.8,49.8,29.77,SE,133,2.0,4.0,100,0.06,,---,0.08,VWS V14.01,2013-04-12 13:33:00,
2013-04-12 09:38:00,50.0,50.0,29.77,ESE,109,1.0,4.0,100,0.06,,---,0.08,VWS V14.01,2013-04-12 13:38:00,
2013-04-12 09:43:00,50.0,50.0,29.77,SSE,151,3.0,6.0,100,0.06,,---,0.08,VWS V14.01,2013-04-12 13:43:00,
2013-04-12 09:48:00,50.1,50.1,29.77,SE,130,4.0,6.0,100,0.06,,---,0.08,VWS V14.01,2013-04-12 13:48:00,
2013-04-12 09:53:00,50.2,50.2,29.77,East,99,4.0,6.0,100,0.06,,---,0.08,VWS V14.01,2013-04-12 13:53:00,
2013-04-12 09:58:00,50.2,50.2,29.77,SE,136,4.0,7.0,100,0.07,,---,0.09,VWS V14.01,2013-04-12 13:58:00,
2013-04-12 10:03:00,50.4,50.4,29.76,SE,131,1.0,5.0,100,0.07,,---,0.10,VWS V14.01,2013-04-12 14:03:00,
2013-04-12 10:08:00,50.6,50.6,29.76,ESE,111,1.0,5.0,100,0.07,,---,0.10,VWS V14.01,2013-04-12 14:08:00,
2013-04-12 10:13:00,50.8,50.8,29.76,SSW,205,0.0,5.0,100,0.07,,---,0.10,VWS V14.01,2013-04-12 14:13:00,
2013-04-12 10:18:00,51.0,51.0,29.76,SW,220,0.0,5.0,100,0.08,,---,0.11,VWS V14.01,2013-04-12 14:18:00,
2013-04-12 10:23:00,51.1,51.1,29.76,East,101,1.0,5.0,100,0.08,,---,0.11,VWS V14.01,2013-04-12 14:23:00,
2013-04-12 10:28:00,51.2,51.2,29.77,West,262,1.0,5.0,100,0.08,,---,0.11,VWS V14.01,2013-04-12 14:28:00,
2013-04-12 10:33:00,51.3,51.3,29.76,SW,220,4.0,5.0,100,0.03,,---,0.11,VWS V14.01,2013-04-12 14:33:00,
2013-04-12 10:38:00,51.6,51.6,29.77,SW,236,4.0,8.0,100,0.04,,---,0.12,VWS V14.01,2013-04-12 14:38:00,
2013-04-12 10:43:00,51.8,51.8,29.76,SSW,200,3.0,8.0,100,0.04,,---,0.12,VWS V14.01,2013-04-12 14:43:00,
2013-04-12 10:48:00,51.9,51.9,29.76,SW,224,0.0,8.0,100,0.04,,---,0.12,VWS V14.01,2013-04-12 14:48:00,
2013-04-12 10:53:00,52.0,52.0,29.75,SW,221,1.0,8.0,100,0.05,,---,0.13,VWS V14.01,2013-04-12 14:53:00,
2013-04-12 10:58:00,52.2,52.2,29.76,SSE,153,3.0,8.0,100,0.05,,---,0.13,VWS V14.01,2013-04-12 14:58:00,
2013-04-12 11:03:00,52.0,52.0,29.76,SE,146,1.0,3.0,100,0.04,,---,0.13,VWS V14.01,2013-04-12 15:03:00,
2013-04-12 11:08:00,52.0,52.0,29.76,SE,143,1.0,4.0,100,0.05,,---,0.14,VWS V14.01,2013-04-12 15:08:00,
2013-04-12 11:13:00,51.9,51.9,29.75,SSE,152,2.0,4.0,100,0.06,,---,0.15,VWS V14.01,2013-04-12 15:13:00,
2013-04-12 11:18:00,51.8,51.8,29.75,SW,227,2.0,4.0,100,0.07,,---,0.16,VWS V14.01,2013-04-12 15:18:00,
2013-04-12 11:24:00,51.9,51.9,29.75,South,190,4.0,6.0,100,0.07,,---,0.16,VWS V14.01,2013-04-12 15:24:00,
2013-04-12 11:29:00,52.0,52.0,29.74,SSE,154,3.0,8.0,100,0.08,,---,0.17,VWS V14.01,2013-04-12 15:29:00,
2013-04-12 11:33:00,52.0,52.0,29.74,South,171,4.0,7.0,100,0.06,,---,0.17,VWS V14.01,2013-04-12 15:33:00,
2013-04-12 11:39:00,52.2,52.2,29.74,WSW,257,2.0,7.0,100,0.06,,---,0.17,VWS V14.01,2013-04-12 15:39:00,
2013-04-12 11:44:00,52.3,52.3,29.73,ENE,77,6.0,7.0,100,0.06,,---,0.17,VWS V14.01,2013-04-12 15:44:00,
2013-04-12 11:49:00,52.4,52.4,29.73,NE,55,4.0,8.0,100,0.07,,---,0.18,VWS V14.01,2013-04-12 15:49:00,
2013-04-12 11:54:00,52.6,52.6,29.73,SE,143,4.0,9.0,100,0.07,,---,0.18,VWS V14.01,2013-04-12 15:54:00,
2013-04-12 11:59:00,52.9,52.9,29.73,South,169,3.0,9.0,100,0.07,,---,0.18,VWS V14.01,2013-04-12 15:59:00,
2013-04-12 12:04:00,52.8,52.8,29.73,SSW,195,5.0,8.0,100,0.05,,---,0.18,VWS V14.01,2013-04-12 16:04:00,
2013-04-12 12:09:00,52.8,52.8,29.72,WNW,292,8.0,10.0,100,0.05,,---,0.18,VWS V14.01,2013-04-12 16:09:00,
2013-04-12 12:14:00,53.2,53.2,29.72,NE,34,4.0,10.0,100,0.06,,---,0.19,VWS V14.01,2013-04-12 16:14:00,
2013-04-12 12:19:00,52.9,52.6,29.71,SE,131,6.0,10.0,99,0.06,,---,0.19,VWS V14.01,2013-04-12 16:19:00,
2013-04-12 12:24:00,52.6,52.3,29.71,SSE,147,6.0,10.0,99,0.06,,---,0.19,VWS V14.01,2013-04-12 16:24:00,
2013-04-12 12:29:00,52.5,52.2,29.71,SSE,150,5.0,10.0,99,0.07,,---,0.20,VWS V14.01,2013-04-12 16:29:00,
2013-04-12 12:34:00,52.4,52.1,29.71,South,184,4.0,10.0,99,0.04,,---,0.21,VWS V14.01,2013-04-12 16:34:00,
2013-04-12 12:39:00,52.2,51.9,29.72,ENE,63,9.0,10.0,99,0.04,,---,0.21,VWS V14.01,2013-04-12 16:39:00,
2013-04-12 12:44:00,52.3,52.0,29.71,SW,231,7.0,11.0,99,0.04,,---,0.21,VWS V14.01,2013-04-12 16:44:00,
2013-04-12 12:49:00,52.2,51.9,29.71,SSE,158,5.0,11.0,99,0.05,,---,0.22,VWS V14.01,2013-04-12 16:49:00,
2013-04-12 12:54:00,52.3,52.0,29.71,SSW,197,9.0,11.0,99,0.06,,---,0.23,VWS V14.01,2013-04-12 16:54:00,
2013-04-12 12:59:00,52.5,52.2,29.70,SW,236,3.0,11.0,99,0.06,,---,0.23,VWS V14.01,2013-04-12 16:59:00,
2013-04-12 13:04:00,52.6,52.3,29.70,ESE,116,7.0,12.0,99,0.05,,---,0.23,VWS V14.01,2013-04-12 17:04:00,
2013-04-12 13:09:00,52.6,52.3,29.70,SW,216,6.0,12.0,99,0.05,,---,0.23,VWS V14.01,2013-04-12 17:09:00,
2013-04-12 13:14:00,52.6,52.3,29.70,SSW,194,8.0,12.0,99,0.05,,---,0.23,VWS V14.01,2013-04-12 17:14:00,
2013-04-12 13:19:00,52.6,52.3,29.69,East,94,8.0,12.0,99,0.05,,---,0.23,VWS V14.01,2013-04-12 17:19:00,
2013-04-12 13:24:00,52.8,52.5,29.69,SW,214,4.0,12.0,99,0.05,,---,0.23,VWS V14.01,2013-04-12 17:24:00,
2013-04-12 13:29:00,53.3,53.0,29.68,SSW,197,5.0,12.0,99,0.05,,---,0.23,VWS V14.01,2013-04-12 17:29:00,
2013-04-12 13:34:00,53.3,53.0,29.68,SSE,153,5.0,9.0,99,0.03,,---,0.23,VWS V14.01,2013-04-12 17:34:00,
2013-04-12 13:39:00,53.4,53.1,29.68,SW,226,5.0,12.0,99,0.03,,---,0.23,VWS V14.01,2013-04-12 17:39:00,
2013-04-12 13:44:00,53.2,52.9,29.68,South,184,7.0,13.0,99,0.03,,---,0.23,VWS V14.01,2013-04-12 17:44:00,
2013-04-12 13:49:00,53.1,52.8,29.67,SSW,201,4.0,13.0,99,0.03,,---,0.23,VWS V14.01,2013-04-12 17:49:00,
2013-04-12 13:54:00,53.2,52.9,29.67,ENE,67,8.0,13.0,99,0.03,,---,0.23,VWS V14.01,2013-04-12 17:54:00,
2013-04-12 13:59:00,53.0,52.7,29.67,WSW,237,6.0,13.0,99,0.03,,---,0.23,VWS V14.01,2013-04-12 17:59:00,
2013-04-12 14:04:00,53.0,52.7,29.67,SSW,206,3.0,10.0,99,0.00,,---,0.23,VWS V14.01,2013-04-12 18:04:00,
2013-04-12 14:10:00,52.9,52.6,29.67,NNE,15,4.0,10.0,99,0.00,,---,0.23,VWS V14.01,2013-04-12 18:10:00,
2013-04-12 14:15:00,52.6,52.3,29.66,NNW,340,3.0,10.0,99,0.00,,---,0.23,VWS V14.01,2013-04-12 18:15:00,
2013-04-12 14:20:00,52.6,52.3,29.66,NNW,348,2.0,10.0,99,0.00,,---,0.23,VWS V14.01,2013-04-12 18:20:00,
2013-04-12 14:25:00,52.8,52.5,29.66,South,191,5.0,10.0,99,0.00,,---,0.23,VWS V14.01,2013-04-12 18:25:00,
2013-04-12 15:26:00,53.6,53.3,29.65,WNW,303,5.0,15.0,99,0.00,,---,0.23,VWS V14.01,2013-04-12 19:26:00,
2013-04-12 15:31:00,53.7,53.4,29.65,WNW,290,3.0,12.0,99,0.00,,---,0.23,VWS V14.01,2013-04-12 19:31:00,
2013-04-12 15:37:00,54.2,53.9,29.65,East,96,8.0,13.0,99,0.00,,---,0.23,VWS V14.01,2013-04-12 19:37:00,
2013-04-12 15:42:00,54.3,54.0,29.65,WSW,237,12.0,13.0,99,0.00,,---,0.23,VWS V14.01,2013-04-12 19:42:00,
2013-04-12 15:47:00,54.7,54.4,29.67,South,181,7.0,14.0,99,0.00,,---,0.23,VWS V14.01,2013-04-12 19:47:00,
2013-04-12 15:52:00,55.3,55.0,29.66,South,183,12.0,15.0,99,0.00,,---,0.23,VWS V14.01,2013-04-12 19:52:00,
2013-04-12 15:57:00,55.4,55.1,29.66,SW,231,7.0,15.0,99,0.00,,---,0.23,VWS V14.01,2013-04-12 19:57:00,
2013-04-12 16:02:00,55.6,55.6,29.66,SSW,193,9.0,9.0,100,0.00,,---,0.23,VWS V14.01,2013-04-12 20:02:00,
2013-04-12 16:07:00,55.7,55.7,29.65,SSW,193,2.0,12.0,100,0.00,,---,0.23,VWS V14.01,2013-04-12 20:07:00,
2013-04-12 16:12:00,56.1,56.1,29.65,WSW,247,2.0,12.0,100,0.00,,---,0.23,VWS V14.01,2013-04-12 20:12:00,
2013-04-12 16:17:00,56.5,56.5,29.65,East,96,5.0,12.0,100,0.00,,---,0.23,VWS V14.01,2013-04-12 20:17:00,
2013-04-12 16:22:00,55.9,55.6,29.65,ESE,117,5.0,12.0,99,0.00,,---,0.23,VWS V14.01,2013-04-12 20:22:00,
2013-04-12 16:27:00,55.4,55.1,29.64,South,189,2.0,12.0,99,0.00,,---,0.23,VWS V14.01,2013-04-12 20:27:00,
2013-04-12 16:32:00,55.3,55.0,29.64,South,181,3.0,7.0,99,0.00,,---,0.23,VWS V14.01,2013-04-12 20:32:00,
2013-04-12 16:37:00,55.9,55.6,29.64,SSW,209,4.0,12.0,99,0.00,,---,0.23,VWS V14.01,2013-04-12 20:37:00,
2013-04-12 16:42:00,56.6,56.6,29.64,WSW,252,7.0,13.0,100,0.00,,---,0.23,VWS V14.01,2013-04-12 20:42:00,
2013-04-12 16:47:00,57.1,57.1,29.64,South,179,5.0,13.0,100,0.00,,---,0.23,VWS V14.01,2013-04-12 20:47:00,
2013-04-12 16:52:00,57.2,57.2,29.64,NNW,341,4.0,13.0,100,0.00,,---,0.23,VWS V14.01,2013-04-12 20:52:00,
2013-04-12 16:57:00,56.6,56.3,29.64,WSW,248,10.0,13.0,99,0.00,,---,0.23,VWS V14.01,2013-04-12 20:57:00,
2013-04-12 17:02:00,56.1,55.8,29.64,SSW,207,4.0,11.0,99,0.00,,---,0.23,VWS V14.01,2013-04-12 21:02:00,
2013-04-12 17:07:00,55.6,55.3,29.64,SW,236,3.0,11.0,99,0.00,,---,0.23,VWS V14.01,2013-04-12 21:07:00,
2013-04-12 17:12:00,55.4,55.1,29.64,SE,142,4.0,13.0,99,0.00,,---,0.23,VWS V14.01,2013-04-12 21:12:00,
2013-04-12 17:17:00,55.1,54.8,29.64,East,87,6.0,13.0,99,0.00,,---,0.23,VWS V14.01,2013-04-12 21:17:00,
2013-04-12 17:22:00,54.4,54.1,29.65,WSW,257,2.0,13.0,99,0.00,,---,0.23,VWS V14.01,2013-04-12 21:22:00,
2013-04-12 17:27:00,53.9,53.6,29.64,SSW,205,6.0,13.0,99,0.00,,---,0.23,VWS V14.01,2013-04-12 21:27:00,
2013-04-12 17:32:00,53.7,53.4,29.64,WSW,255,2.0,5.0,99,0.00,,---,0.23,VWS V14.01,2013-04-12 21:32:00,
2013-04-12 17:37:00,53.5,53.2,29.64,South,188,3.0,5.0,99,0.00,,---,0.23,VWS V14.01,2013-04-12 21:37:00,
2013-04-12 17:42:00,53.4,53.1,29.65,SW,229,1.0,5.0,99,0.00,,---,0.23,VWS V14.01,2013-04-12 21:42:00,
2013-04-12 17:47:00,53.2,52.9,29.65,South,181,3.0,5.0,99,0.00,,---,0.23,VWS V14.01,2013-04-12 21:47:00,
2013-04-12 17:52:00,52.9,52.6,29.65,ESE,118,0.0,5.0,99,0.00,,---,0.23,VWS V14.01,2013-04-12 21:52:00,
2013-04-12 17:57:00,52.4,52.1,29.64,SSE,168,2.0,5.0,99,0.00,,---,0.23,VWS V14.01,2013-04-12 21:57:00,
2013-04-12 18:02:00,52.4,52.1,29.64,South,180,0.0,4.0,99,0.00,,---,0.23,VWS V14.01,2013-04-12 22:02:00,
2013-04-12 18:07:00,52.6,52.3,29.64,SSW,193,2.0,4.0,99,0.00,,---,0.23,VWS V14.01,2013-04-12 22:07:00,
2013-04-12 18:12:00,52.5,52.2,29.64,ESE,110,0.0,4.0,99,0.00,,---,0.23,VWS V14.01,2013-04-12 22:12:00,
2013-04-12 18:18:00,52.3,52.0,29.64,ESE,110,0.0,4.0,99,0.00,,---,0.23,VWS V14.01,2013-04-12 22:18:00,
2013-04-12 18:23:00,52.5,52.2,29.63,SW,223,0.0,4.0,99,0.00,,---,0.23,VWS V14.01,2013-04-12 22:23:00,
2013-04-12 18:28:00,52.5,52.2,29.64,SW,223,0.0,4.0,99,0.00,,---,0.23,VWS V14.01,2013-04-12 22:28:00,
2013-04-12 18:33:00,52.0,51.7,29.63,SW,223,0.0,0.0,99,0.00,,---,0.23,VWS V14.01,2013-04-12 22:33:00,
2013-04-12 18:38:00,52.4,52.1,29.63,ESE,123,0.0,1.0,99,0.00,,---,0.23,VWS V14.01,2013-04-12 22:38:00,
2013-04-12 18:43:00,52.4,52.1,29.63,ESE,123,0.0,1.0,99,0.00,,---,0.23,VWS V14.01,2013-04-12 22:43:00,
2013-04-12 18:48:00,52.3,52.0,29.63,SE,144,0.0,1.0,99,0.00,,---,0.23,VWS V14.01,2013-04-12 22:48:00,
2013-04-12 18:53:00,52.0,51.7,29.63,NNE,25,0.0,2.0,99,0.00,,---,0.23,VWS V14.01,2013-04-12 22:53:00,
2013-04-12 18:58:00,51.1,50.8,29.63,NE,44,3.0,6.0,99,0.00,,---,0.23,VWS V14.01,2013-04-12 22:58:00,
2013-04-12 19:03:00,50.5,50.2,29.63,NNE,33,2.0,4.0,99,0.00,,---,0.23,VWS V14.01,2013-04-12 23:03:00,
2013-04-12 19:08:00,50.4,50.1,29.63,NE,51,2.0,6.0,99,0.00,,---,0.23,VWS V14.01,2013-04-12 23:08:00,
2013-04-12 19:13:00,49.1,48.8,29.63,NNE,30,9.0,13.0,99,0.00,,---,0.23,VWS V14.01,2013-04-12 23:13:00,
2013-04-12 19:18:00,48.1,47.6,29.63,NE,38,4.0,13.0,98,0.00,,---,0.23,VWS V14.01,2013-04-12 23:18:00,
2013-04-12 19:23:00,48.0,47.7,29.64,NNE,13,7.0,13.0,99,0.00,,---,0.23,VWS V14.01,2013-04-12 23:23:00,
2013-04-12 19:28:00,48.1,47.8,29.64,North,11,5.0,13.0,99,0.00,,---,0.23,VWS V14.01,2013-04-12 23:28:00,
2013-04-12 19:33:00,47.9,47.6,29.63,NNE,16,6.0,10.0,99,0.00,,---,0.23,VWS V14.01,2013-04-12 23:33:00,
2013-04-12 19:38:00,47.8,47.5,29.64,NE,48,5.0,10.0,99,0.00,,---,0.23,VWS V14.01,2013-04-12 23:38:00,
2013-04-12 19:43:00,47.6,47.3,29.64,NE,38,3.0,10.0,99,0.00,,---,0.23,VWS V14.01,2013-04-12 23:43:00,
2013-04-12 19:48:00,47.8,47.5,29.64,NNE,17,4.0,10.0,99,0.00,,---,0.23,VWS V14.01,2013-04-12 23:48:00,
2013-04-12 19:53:00,47.9,47.6,29.64,NE,49,5.0,10.0,99,0.00,,---,0.23,VWS V14.01,2013-04-12 23:53:00,
2013-04-12 19:58:00,48.0,47.7,29.64,NNE,27,7.0,12.0,99,0.00,,---,0.23,VWS V14.01,2013-04-12 23:58:00,
2013-04-12 20:03:00,47.9,47.6,29.65,NNW,340,7.0,16.0,99,0.00,,---,0.23,VWS V14.01,2013-04-13 00:03:00,
2013-04-12 20:08:00,47.6,47.3,29.65,NNE,25,7.0,16.0,99,0.00,,---,0.23,VWS V14.01,2013-04-13 00:08:00,
2013-04-12 20:13:00,47.5,47.2,29.65,NNE,26,5.0,16.0,99,0.00,,---,0.23,VWS V14.01,2013-04-13 00:13:00,
2013-04-12 20:18:00,47.4,47.1,29.65,NW,306,3.0,16.0,99,0.00,,---,0.23,VWS V14.01,2013-04-13 00:18:00,
2013-04-12 20:23:00,47.3,47.0,29.66,NNW,329,9.0,16.0,99,0.00,,---,0.23,VWS V14.01,2013-04-13 00:23:00,
2013-04-12 20:28:00,47.1,46.8,29.66,NE,48,6.0,16.0,99,0.00,,---,0.23,VWS V14.01,2013-04-13 00:28:00,
2013-04-12 20:33:00,47.0,46.7,29.65,NNE,30,10.0,13.0,99,0.00,,---,0.23,VWS V14.01,2013-04-13 00:33:00,
2013-04-12 20:38:00,46.9,46.6,29.65,North,349,8.0,15.0,99,0.00,,---,0.23,VWS V14.01,2013-04-13 00:38:00,
2013-04-12 20:43:00,46.8,46.5,29.65,NNE,31,10.0,18.0,99,0.00,,---,0.23,VWS V14.01,2013-04-13 00:43:00,
2013-04-12 20:48:00,46.6,46.3,29.65,NNW,335,5.0,18.0,99,0.00,,---,0.23,VWS V14.01,2013-04-13 00:48:00,
2013-04-12 20:53:00,46.3,46.0,29.65,North,4,9.0,18.0,99,0.00,,---,0.23,VWS V14.01,2013-04-13 00:53:00,
2013-04-12 20:58:00,46.1,45.8,29.65,NNE,18,10.0,18.0,99,0.00,,---,0.23,VWS V14.01,2013-04-13 00:58:00,
2013-04-12 21:03:00,46.1,45.8,29.65,NNE,27,10.0,17.0,99,0.00,,---,0.23,VWS V14.01,2013-04-13 01:03:00,
2013-04-12 21:08:00,46.0,45.7,29.66,NNE,19,7.0,17.0,99,0.00,,---,0.23,VWS V14.01,2013-04-13 01:08:00,
2013-04-12 21:13:00,46.1,45.8,29.66,NNE,20,6.0,17.0,99,0.00,,---,0.23,VWS V14.01,2013-04-13 01:13:00,
2013-04-12 21:18:00,46.0,45.7,29.66,North,11,7.0,17.0,99,0.00,,---,0.23,VWS V14.01,2013-04-13 01:18:00,
2013-04-12 21:23:00,46.0,45.7,29.65,North,1,7.0,17.0,99,0.00,,---,0.23,VWS V14.01,2013-04-13 01:23:00,
2013-04-12 21:28:00,45.7,45.4,29.66,NNW,346,4.0,17.0,99,0.00,,---,0.23,VWS V14.01,2013-04-13 01:28:00,
2013-04-12 21:33:00,45.7,45.4,29.66,NNE,20,5.0,15.0,99,0.00,,---,0.23,VWS V14.01,2013-04-13 01:33:00,
2013-04-12 21:38:00,45.7,45.4,29.66,NNE,30,7.0,16.0,99,0.00,,---,0.23,VWS V14.01,2013-04-13 01:38:00,
2013-04-12 21:43:00,45.8,45.5,29.66,North,6,12.0,16.0,99,0.00,,---,0.23,VWS V14.01,2013-04-13 01:43:00,
2013-04-12 21:48:00,45.7,45.4,29.66,NNE,18,7.0,16.0,99,0.00,,---,0.23,VWS V14.01,2013-04-13 01:48:00,
2013-04-12 21:53:00,45.6,45.3,29.66,North,8,8.0,16.0,99,0.00,,---,0.23,VWS V14.01,2013-04-13 01:53:00,
2013-04-12 21:58:00,45.4,45.1,29.66,NNE,15,10.0,16.0,99,0.00,,---,0.23,VWS V14.01,2013-04-13 01:58:00,
2013-04-12 22:03:00,45.2,44.9,29.66,North,9,12.0,14.0,99,0.00,,---,0.23,VWS V14.01,2013-04-13 02:03:00,
2013-04-12 22:08:00,45.2,44.9,29.66,North,6,7.0,15.0,99,0.00,,---,0.23,VWS V14.01,2013-04-13 02:08:00,
2013-04-12 22:13:00,45.3,45.0,29.66,NE,37,11.0,15.0,99,0.00,,---,0.23,VWS V14.01,2013-04-13 02:13:00,
2013-04-12 22:18:00,45.1,44.8,29.66,NNE,32,11.0,20.0,99,0.00,,---,0.23,VWS V14.01,2013-04-13 02:18:00,
2013-04-12 22:23:00,45.1,44.8,29.66,NNE,15,6.0,20.0,99,0.00,,---,0.23,VWS V14.01,2013-04-13 02:23:00,
2013-04-12 22:28:00,45.3,45.0,29.67,North,357,5.0,20.0,99,0.00,,---,0.23,VWS V14.01,2013-04-13 02:28:00,
2013-04-12 22:33:00,45.1,44.8,29.66,NE,40,10.0,14.0,99,0.00,,---,0.23,VWS V14.01,2013-04-13 02:33:00,
2013-04-12 22:39:00,45.0,44.7,29.66,NE,44,9.0,18.0,99,0.00,,---,0.23,VWS V14.01,2013-04-13 02:39:00,
2013-04-12 22:44:00,45.0,44.7,29.66,NNW,336,3.0,18.0,99,0.00,,---,0.23,VWS V14.01,2013-04-13 02:44:00,
2013-04-12 22:49:00,44.9,44.6,29.66,NNE,16,8.0,18.0,99,0.00,,---,0.23,VWS V14.01,2013-04-13 02:49:00,
2013-04-12 22:54:00,44.9,44.6,29.66,NNE,20,7.0,18.0,99,0.00,,---,0.23,VWS V14.01,2013-04-13 02:54:00,
2013-04-12 22:59:00,44.9,44.6,29.66,North,6,12.0,18.0,99,0.00,,---,0.23,VWS V14.01,2013-04-13 02:59:00,
2013-04-12 23:04:00,45.0,44.7,29.66,NNW,347,10.0,15.0,99,0.00,,---,0.23,VWS V14.01,2013-04-13 03:04:00,
2013-04-12 23:09:00,44.8,44.5,29.65,NNW,330,8.0,15.0,99,0.00,,---,0.23,VWS V14.01,2013-04-13 03:09:00,
2013-04-12 23:14:00,44.8,44.5,29.66,NW,326,12.0,17.0,99,0.00,,---,0.23,VWS V14.01,2013-04-13 03:14:00,
2013-04-12 23:19:00,44.7,44.4,29.66,North,3,2.0,17.0,99,0.00,,---,0.23,VWS V14.01,2013-04-13 03:19:00,
2013-04-12 23:24:00,44.9,44.6,29.68,NNE,25,13.0,17.0,99,0.00,,---,0.23,VWS V14.01,2013-04-13 03:24:00,
2013-04-12 23:29:00,44.9,44.6,29.68,SSE,162,8.0,23.0,99,0.00,,---,0.23,VWS V14.01,2013-04-13 03:29:00,
2013-04-12 23:34:00,45.0,45.0,29.69,ENE,62,9.0,22.0,100,0.00,,---,0.23,VWS V14.01,2013-04-13 03:34:00,
2013-04-12 23:39:00,45.2,45.2,29.69,NW,304,10.0,22.0,100,0.01,,---,0.24,VWS V14.01,2013-04-13 03:39:00,
2013-04-12 23:44:00,45.2,45.2,29.69,NW,326,8.0,22.0,100,0.01,,---,0.24,VWS V14.01,2013-04-13 03:44:00,
2013-04-12 23:49:00,45.2,45.2,29.70,WNW,284,10.0,22.0,100,0.01,,---,0.24,VWS V14.01,2013-04-13 03:49:00,
2013-04-12 23:54:00,45.2,45.2,29.70,North,354,11.0,22.0,100,0.01,,---,0.24,VWS V14.01,2013-04-13 03:54:00,
2013-04-12 23:59:00,45.2,45.2,29.71,NW,305,5.0,22.0,100,0.01,,---,0.24,VWS V14.01,2013-04-13 03:59:00,